AQI (35)

Current Conditions for Foresthill, CA. Sunny, Dry   
Visibility: 10 miles
Foresthill Advisory text: No Warning

  Summary / Temperature 

Current Temperature
60.9°F
16.1°C
(24/hr Ago)
48.6°F
(Apparent temp)
59.3°F
Comfortable
Wind Chill Graphs
60.9°F 

63.1°F/ 17.3°C
 --- Virtual Temp: 63.5°F ---

 Temp Rate:

 24/hr Difference:

 Avg Running Temp:

 Todays High:

 Todays Low:

 Y-days High:

 Y-days Low:

 Todays WChill:

 Y-days WChill:

 Evapotranspiration:

+2.2°F/hr 

+12.3°F

59.2°F

61.0°F 1:55pm

42.2°F 6:12am

50.8°F 3:39pm

43.3°F 12:02am

35.6°F 6:23am

35.5°F 12:06am

0.071 in

115' Above Ground

 Temperature:

 6'AGL VRS 115'AGL:

 Avg Running Temp:

 Humidity:

 Todays High:

 Todays Low:

 Y-days High:

 Y-days Low:

61.0°F 

+0.1°F

59.4°F

62% 

61.0°F 1:55pm

44.0°F 2:28am

53.0°F 3:23pm

42.0°F 12:00am

Temp & Humidity Graphs

  Wind 

Wind Speed

 4.0 mph

Gusting to

 10.0 mph

Wind from WNW

291°  WNW

Light breeze

 Avg speed:

 Wind Run:

 Peak Gust:

  3.0 mph 

41.0 miles

  14.0 mph 12:15am

  Almanac  

Moon age: 7 days,15 hours,38 minutes,53%

Waxing Gibbous
58%
Illuminated
8 days in cycle

 Moonrise:

 Moonset:

 Sunrise:

 Sunset:

 Solar Noon:

1:13pm

2:15am

6:09am

7:49pm

1:01pm

2min 18s more daylight tomorrow 

  Solar Radiation 

(Current Solar)
  970 W/m2 (94%)
(Todays High)
 1007 W/m2@1:41pm
Feels like: 75.6°F in the sun

Rain

 Rain Today:

 Rain Rate (/hr):

 Rain last hour:

 Rain Yesterday:

 This Month:

 Season Total:

3 Days Since Last Dry Day

0.00 in

0.000 in

0.00 in

1.32 in

2.97 in

33.53 in

Updated Time

Updated: 4/26/15  1:56pm

(Updated  sec ago)

Humidity & Barometer

 Humidity:

 Wetbulb:

 Dew Point:

 Barometer:

67% 

54.9°F 

49.9°F 

30.151 inHg 

 Baro Trend:  Steady 
Northern Calif
Preparedness
Fire 
Level 

    UV Index  

(Current UV)
9.4  Very High
(Todays High) @ 1:09pm
9.9   Very High

Weather Underground 5 day Forecast

Mon Tue Wed Thu Fri
Clear Clear Partly Cloudy Partly Cloudy Partly Cloudy
Clear Clear Partly Cloudy Partly Cloudy Partly Cloudy
70° 69° 67° 66° 65°
52° 52° 48° 48° 49°

Foresthill Probe 2 Stats  
Foresthill Probe 2: is located on Thomas Street
at 3000 feet. The main Foresthill Weather site
is located on Melody ln at the 2860 foot elevation

Light Air
62.3°F
16.8°C
Temp Rate:
+1.7°F
2.0 mph
Gusting to
9.0 mph
(Humidity)
65%
Wind from NNW
335°  NNW
Updated: 26/04/15 - 13:55:41
 Todays High: 63.1°F 13:33
 Todays Low: 40.1°F 05:53
 Rain Today: 0.00 in
 Season Total: 31.32 in

Foresthill Wx: Monthly,Yearly, Highs and Lows 

Foresthill  
This Weather Data is coming from the main Foresthill
Weather site located on Melody ln at the 2860 foot
elevation
Not Foresthill Probe 2
Weather Data
Month
  High
Month
  Low
Year
High
Year
Low
Temp 75.1°F
4/19/15
33.1°F
4/7/15
77.2°F
3/27/15
29.7°F
1/1/15
Humidity 98%
4/25/15
24%
4/15/15
98%
4/25/15
21%
2/24/15
Heat Index 74.9°F
4/19/15
38.7°F
4/14/15
76.9°F
3/27/15
32.1°F
1/1/15
Wind Chill 75.1°F
4/19/15
22.3°F
4/7/15
77.2°F
3/27/15
22.3°F
4/7/15
Wind Gust 38 mph
4/16/15
0 mph
4/1/15
52 mph
2/6/15
0 mph
1/1/15
Barometer 30.32 in
4/14/15
29.76 in
4/21/15
30.51 in
1/4/15
29.70 in
2/27/15
ET 0.21 in
4/16/15
0.00 in
4/1/15
0.21 in
4/16/15
0.00 in
1/1/15
Dew Point 56.4°F
4/20/15
17.4°F
4/16/15
56.4°F
4/20/15
10.0°F
1/1/15
Infrared Satellite Regional Radar Satellite Imagery Sacramento,CA.  (click to enlarge)
NWS Weather Forecast - Outlook: This Afternoon and Tonight
This
Afternoon

Sunny
Sunny

Hi 66 °F
NWS forecast: Sunny, with a high near 66. West northwest wind around 9 mph.
Tonight

Mostly Clear
Mostly
Clear
Lo 49 °F
NWS forecast: Mostly clear, with a low around 49. Light and variable wind becoming east northeast 5 to 10 mph after midnight.
NWS Weather Forecast - Summary
Updated: Sunday, April 26, 2015 - 3:30am (PDT)
YR.NO 10 Day Weather forecast
Last update: 04/26/2015 @ 00:04
Next update: 04/26/2015 @ 13:00
Provided by: 22
      Temperature Precipitation Pressure Wind  
Today
04/26/2015
14:00 17:00 64°F   30.01 inHg Light breeze from west-northwest 7 mph
  17:00 23:00 64°F   29.98 inHg Gentle breeze from west-northwest 8 mph
  23:00 05:00 48°F   30.05 inHg Gentle breeze from northeast 8 mph
    (Click to enlarge)
meteogram

    Forecast for next 9 days

      Temperature Precip Pressure Wind  
Monday
04/27/2015
05:00 11:00 50°F   29.95 inHg Gentle breeze from east-northeast 8 mph
  11:00 17:00 70°F   29.99 inHg Light breeze from east-northeast 5 mph
  17:00 23:00 72°F   29.94 inHg Light breeze from west-southwest 6 mph
  23:00 05:00 50°F   29.99 inHg Light breeze from east-northeast 5 mph
      Temperature Precip Pressure Wind  
Tuesday
04/28/2015
05:00 11:00 46°F   29.98 inHg Light breeze from east-northeast 5 mph
  11:00 17:00 72°F   29.99 inHg Light breeze from southwest 5 mph
  17:00 23:00 73°F   29.95 inHg Light breeze from west-southwest 5 mph
  23:00 05:00 55°F   29.97 inHg Light breeze from east 4 mph
      Temperature Precip Pressure Wind  
Wednesday
04/29/2015
05:00 11:00 46°F   29.93 inHg Light breeze from east 5 mph
  11:00 17:00 70°F   29.93 inHg Light breeze from southwest 6 mph
  17:00 23:00 70°F   29.90 inHg Light breeze from west-southwest 5 mph
  23:00 05:00 50°F   29.92 inHg Light breeze from east-northeast 4 mph
      Temperature Precip Pressure Wind  
Thursday
04/30/2015
05:00 11:00 46°F   29.88 inHg Light breeze from east-northeast 7 mph
  11:00 17:00 73°F   29.88 inHg Gentle breeze from east-northeast 10 mph
  17:00 23:00 77°F   29.82 inHg Light breeze from east 7 mph
  23:00 05:00 61°F   29.88 inHg Gentle breeze from east-northeast 8 mph
      Temperature Precip Pressure Wind  
Friday
05/01/2015
05:00 11:00 57°F   29.84 inHg Light breeze from east-northeast 7 mph
  11:00 17:00 75°F 0.03 in 29.83 inHg Light air from south-southeast 2 mph
  17:00 23:00 75°F   29.79 inHg Light air from west-southwest 2 mph
  23:00 05:00 61°F   29.84 inHg Light air from east-southeast 3 mph
      Temperature Precip Pressure Wind  
Saturday
05/02/2015
05:00 11:00 46°F   29.79 inHg Light breeze from east 5 mph
  11:00 17:00 70°F   29.80 inHg Light breeze from southwest 7 mph
  17:00 23:00 72°F   29.75 inHg Light breeze from southwest 7 mph
  23:00 05:00 52°F   29.78 inHg Light breeze from east 4 mph
      Temperature Precip Pressure Wind  
Sunday
05/03/2015
05:00 11:00 43°F   29.77 inHg Light breeze from east 5 mph
  11:00 17:00 61°F   29.83 inHg Light breeze from south-southwest 7 mph
  17:00 23:00 64°F   29.82 inHg Light breeze from southwest 6 mph
  23:00 05:00 48°F   29.88 inHg Light breeze from east-northeast 4 mph
      Temperature Precip Pressure Wind  
Monday
05/04/2015
05:00 11:00 41°F   29.89 inHg Light breeze from east-northeast 4 mph
  11:00 17:00 68°F   29.88 inHg Light air from west-northwest 2 mph
  17:00 23:00 72°F   29.85 inHg Gentle breeze from west-northwest 9 mph
  23:00 05:00 50°F   29.87 inHg Gentle breeze from east-northeast 8 mph
      Temperature Precip Pressure Wind  
Tuesday
05/05/2015
05:00 11:00 50°F   29.85 inHg Gentle breeze from east-northeast 9 mph
  11:00 17:00 72°F   29.86 inHg Light air from southwest 2 mph

Weather History For Sunday, April 26, 2015


On this Day - In Weather History ...
Data courtesy of weatherforyou.com
powered by Cumulus v1.9.3 (1059)
Ambient Weather VWS v14.00
Top Contact Website Map Copyright © 2007 - 2015 Foresthillweather.com Never base important decisions on this or any weather information obtained from the Internet